Regional Weather Roundup
Issued by NWS Little Rock, AR

Home | Current Version | Previous Version | Graphics & Text | Print | Product List | Glossary On
Versions: 1 2 3 4 5 6 7 8 9 10 11 12 13 14 15 16 17 18 19 20 21 22 23 24 25 26 27 28 29 30 31 32 33 34 35 36 37 38 39 40 41 42 43 44 45 46 47 48 49 50
000
ASUS44 KLZK 020305
RWRLZK

WEATHER ROUNDUP FOR ARKANSAS
NATIONAL WEATHER SERVICE LITTLE ROCK AR
1000 PM CDT FRI AUG 01 2014

NOTE: "FAIR" INDICATES FEW OR NO CLOUDS BELOW 12,000 FEET WITH NO
SIGNIFICANT WEATHER AND/OR OBSTRUCTIONS TO VISIBILITY.

ARZ001-003-010-029-020400-
NORTHWEST ARKANSAS

CITY           SKY/WX    TMP DP  RH WIND       PRES   REMARKS
FAYETTEVILLE   PTCLDY    69  67  93 CALM      30.08R
FORT SMITH     PTCLDY    73  67  81 S3        30.05R
HARRISON       CLEAR     68  66  93 CALM      30.09R
BENTONVILLE    CLEAR     72  63  73 CALM      30.09R
ROGERS         CLEAR     69  65  86 E3        30.09R
SILOAM SPGS    CLEAR     70  59  68 CALM      30.09R
HIGHFILL       CLEAR     71  64  78 CALM      30.07R
$$

ARZ004-005-016-020400-
NORTH CENTRAL ARKANSAS

CITY           SKY/WX    TMP DP  RH WIND       PRES   REMARKS
BATESVILLE     CLEAR     70  70 100 CALM      30.05R
FLIPPIN        CLEAR     70  66  88 CALM      30.07R
MTN HOME       CLEAR     68  66  93 CALM      30.06R
$$

ARZ040-041-020400-
WEST CENTRAL ARKANSAS

CITY           SKY/WX    TMP DP  RH WIND       PRES   REMARKS
MENA           MOCLDY    70  68  94 CALM      30.07S
MOUNT IDA      CLOUDY    70  68  93 CALM      30.04S FOG
$$

ARZ009-017-025-026-028-020400-
NORTHEAST ARKANSAS

CITY           SKY/WX    TMP DP  RH WIND       PRES   REMARKS
CORNING        FAIR      73  68  83 CALM      30.05R
JONESBORO      CLEAR     70  67  90 CALM      30.03R
NEWPORT        CLEAR     73  70  91 N3        30.05R
WALNUT RIDGE   CLEAR     73  54  49 N5        30.04R
BLYTHEVILLE    CLEAR     72  67  84 NE5       30.04R
$$

ARZ022-023-033-042-044-020400-
CENTRAL ARKANSAS

CITY           SKY/WX    TMP DP  RH WIND       PRES   REMARKS
LITTLE ROCK    CLOUDY    73  68  84 CALM      30.04R
N LITTLE ROCK  CLOUDY    72  70  93 W2        30.04R
JACKSONVILLE   CLOUDY    73  70  89 W2        30.04R
SEARCY         CLEAR     73  69  87 NW3       30.05R
HOT SPRINGS    CLOUDY    70  67  90 NW3       30.06R
RUSSELLVILLE   CLEAR     70  67  90 CALM      30.04R
CLINTON        FAIR      70  68  94 CALM      30.06S FOG
$$

ARZ036-020400-
EAST ARKANSAS

CITY           SKY/WX    TMP DP  RH WIND       PRES   REMARKS
WEST MEMPHIS   CLEAR     73  69  87 N3        30.01R
$$

ARZ050-053-066-070-073-020400-
SOUTHWEST ARKANSAS

CITY           SKY/WX    TMP DP  RH WIND       PRES   REMARKS
ARKADELPHIA    MOCLDY    71  71 100 CALM      30.05R FOG
CAMDEN         CLOUDY    68  66  94 N5        30.03R FOG
TEXARKANA      CLOUDY    69  67  93 NE8       30.04R
EL DORADO      CLOUDY    68  67  96 NE6       30.02S FOG
DE QUEEN       MOCLDY    70  68  93 N3        30.04R
$$

ARZ056-057-069-020400-
SOUTHEAST ARKANSAS

CITY           SKY/WX    TMP DP  RH WIND       PRES   REMARKS
PINE BLUFF     CLOUDY    71  69  93 NW5       30.03R
STUTTGART      CLOUDY    72  68  88 W5        30.04R
MONTICELLO     CLOUDY    72  69  90 CALM      30.02R FOG

$$




USA.gov is the U.S. government's official web portal to all federal, state and local government web resources and services.